EW8383 Weather Reports


Display with metric or nautical units.
time (UTC)temp
F
wind
direction
speed
MPH
gust
MPH
rain 1hr
in
rain 24hr
in
rain mn
in
humidity
%
barometer
mb
20260504221503 79 346 8.0 0.0 0.00 0.00 0.00 15 996.8
20260504214502 80 345 7.0 0.0 0.00 0.00 0.00 15 997.0
20260504213002 80 36 5.0 0.0 0.00 0.00 0.00 15 997.1
20260504211558 81 9 5.0 0.0 0.00 0.00 0.00 15 997.4
20260504210104 81 351 5.0 0.0 0.00 0.00 0.00 15 997.5
20260504204602 80 324 7.0 0.0 0.00 0.00 0.00 15 997.9
20260504203056 79 42 4.0 0.0 0.00 0.00 0.00 16 998.0
20260504201548 79 174 5.0 0.0 0.00 0.00 0.00 14 998.2
20260504200047 79 132 4.0 0.0 0.00 0.00 0.00 15 998.4
20260504194547 78 211 8.0 0.0 0.00 0.00 0.00 15 998.5
20260504193058 78 240 8.0 0.0 0.00 0.00 0.00 15 998.6
20260504191543 80 267 3.0 0.0 0.00 0.00 0.00 15 998.8
20260504190042 78 63 7.0 0.0 0.00 0.00 0.00 16 999.1
20260504184539 78 25 6.0 0.0 0.00 0.00 0.00 17 999.2
20260504183041 77 94 5.0 0.0 0.00 0.00 0.00 17 999.4
20260504181535 77 82 5.0 0.0 0.00 0.00 0.00 18 999.7
20260504180030 75 61 5.0 0.0 0.00 0.00 0.00 20 999.8
20260504174527 75 71 7.0 0.0 0.00 0.00 0.00 20 1000.3
20260504173025 75 42 6.0 0.0 0.00 0.00 0.00 20 1000.5
20260504171523 74 59 8.0 0.0 0.00 0.00 0.00 18 1000.8
20260504081505 48 209 1.0 0.0 0.00 0.00 0.00 57 1001.8
20260504044539 56 110 10.0 0.0 0.00 0.00 0.00 43 1003.3
20260504043043 57 113 9.0 0.0 0.00 0.00 0.00 41 1003.6
20260504041536 58 115 7.0 0.0 0.00 0.00 0.00 40 1003.7
20260504040035 58 94 4.0 0.0 0.00 0.00 0.00 39 1003.8
20260504034539 59 74 2.0 0.0 0.00 0.00 0.00 38 1003.8
20260504033039 60 72 1.0 0.0 0.00 0.00 0.00 37 1004.0
20260504031534 61 77 4.0 0.0 0.00 0.00 0.00 35 1003.9
20260504030034 62 71 4.0 0.0 0.00 0.00 0.00 34 1003.7
20260504024533 63 66 3.0 0.0 0.00 0.00 0.00 33 1003.7
20260504023033 64 70 3.0 0.0 0.00 0.00 0.00 33 1003.7
20260504020040 68 58 5.0 0.0 0.00 0.00 0.00 29 1003.6
20260504014537 69 59 5.0 0.0 0.00 0.00 0.00 28 1003.5
20260504013031 71 41 5.0 0.0 0.00 0.00 0.00 26 1003.4
20260504011533 72 49 5.0 0.0 0.00 0.00 0.00 25 1003.5
20260504010030 73 46 7.0 0.0 0.00 0.00 0.00 23 1003.4
20260504004529 74 36 7.0 0.0 0.00 0.00 0.00 23 1003.5
20260504003028 74 59 8.0 0.0 0.00 0.00 0.00 22 1003.5
20260504001527 75 36 7.0 0.0 0.00 0.00 0.00 22 1003.6
20260504000026 75 32 6.0 0.0 0.00 0.00 0.00 20 1003.9
20260503234525 76 82 3.0 0.0 0.00 0.00 0.00 20 1003.9
20260503233024 75 36 6.0 0.0 0.00 0.00 0.00 20 1003.9
20260503231523 76 325 5.0 0.0 0.00 0.00 0.00 19 1004.1
20260503230021 76 27 7.0 0.0 0.00 0.00 0.00 19 1004.2
20260503224520 76 37 5.0 0.0 0.00 0.00 0.00 19 1004.3
20260503223019 76 30 7.0 0.0 0.00 0.00 0.00 20 1004.4